Regional Weather Roundup
Issued by NWS

Home | Current Version | Previous Version | Text Only | Print | Product List | Glossary Off
Versions: 1 2 3 4 5 6 7 8 9 10 11 12 13 14 15 16 17 18 19 20 21 22 23 24 25 26 27

000
ASUS42 KTBW 291516
RWRFL
FLORIDA REGIONAL WEATHER ROUNDUP
NATIONAL WEATHER SERVICE TAMPA BAY RUSKIN FL
1100 AM EDT FRI JUL 29 2016

NOTE: "FAIR" INDICATES FEW OR NO CLOUDS BELOW 12,000 FEET WITH NO
SIGNIFICANT WEATHER AND/OR OBSTRUCTIONS TO VISIBILITY.

FLZ001>010-012>015-112-114-115-291600-
PANHANDLE FLORIDA

CITY           SKY/WX    TMP DP  RH WIND       PRES   REMARKS
PENSACOLA      MOSUNNY   88  75  65 S6        30.05S HX  97
PENSACOLA NAS  PTSUNNY   87  77  72 CALM      30.05S HX  99
MILTON NAS     MOSUNNY   87  76  69 VRB5      30.05F HX  97
CRESTVIEW      MOSUNNY   87  73  62 SW6       30.07S
DUKE FIELD     PTSUNNY   86  74  65 NW5       30.05S
VALPARAISO     MOSUNNY   89  74  61 S2        30.05S HX  97
MARY ESTHER    MOSUNNY   90  73  58 W6        30.04  HX  98
TRI COUNTY     FAIR      87  75  67 SW5       30.07R HX  96
PANAMA CITY    PTSUNNY   88  75  65 SW5       30.05S HX  97
TYNDALL AFB    MOSUNNY   88  76  67 SW8       30.06R HX  98
APALACHICOLA   SUNNY     89  77  67 VRB6      30.06S HX 101

STATION/POSITION SKY/WX   TEMP    WIND        PRES    WAVE   SWELL
                          AIR SEA DIR/SP/G            HT/PER HT/PER
                          (F)     (DEG/KT/KT) (MB)    (FT/S) (FT/S)
30.1N   87.6W              86 87  220/  6/  8 1017.8R   2/ 6   2/ 6
29.2N   88.2W              81 87  250/ 16/ 21 1017.5R
28.8N   86.0W              86 87  190/  2/  2 1018.4    2/ 6   2/ 6
PANAMA CITY BEAC           86 88  250/  1/  3 1018.2R
TOWER C                    85     230/  1/  2 1018.7R
28.5N   84.5W              87 88   50/  2/  4 1018.4R   1/ 6   2/ 6

$$
FLZ011-016>038-118-127-128-134-139-239-291600-
NORTH FLORIDA

CITY           SKY/WX    TMP DP  RH WIND       PRES   REMARKS
MARIANNA       MOSUNNY   88  73  61 W9        30.05S HX  95
TALLAHASSEE    MOSUNNY   89  75  63 MISG      30.06S HX  99
PERRY          MOSUNNY   88  75  65 NW5       30.08R HX  98
LIVE OAK       FAIR      90  75  62 N5        30.08S HX 100
CROSS CITY       N/A     91  73  55 VRB6      30.06F HX  99
LAKE CITY      FAIR      86  73  66 NW3       30.07S
GAINESVILLE    SUNNY     88  72  58 CALM      30.07S
WILLISTON      FAIR      90  79  70 NW3       30.08S HX 105
PALATKA        FAIR      90  79  70 CALM      30.06F HX 105
MAYPORT NAS    MOSUNNY   88  74  63 VRB7      30.05S HX  96
JACKSONVILLE   MOSUNNY   89  73  59 W5        30.04S HX  97
JAX NAS        MOSUNNY   89  72  56 CALM      30.06S HX  96
JAX CECIL      SUNNY     90  73  58 NW8       30.05S HX  98
FERNANDINA BEA FAIR      91  73  55 W7        30.03S HX 100
ST AUGUSTINE   SUNNY     89  75  63 NW5       30.06S HX  99
PALM COAST     SUNNY     90  75  62 N6        30.06S HX 100

STATION/POSITION SKY/WX   TEMP    WIND        PRES    WAVE   SWELL
                          AIR SEA DIR/SP/G            HT/PER HT/PER
                          (F)     (DEG/KT/KT) (MB)    (FT/S) (FT/S)
SHELL POINT                84     290/  3/  4 1016.9
KEATON BEACH               86     310/  5/  8 1017.9R
CEDAR KEY                  85      70/  4/  4 1018.5F
FERNANDINA                 85 88  290/  6/ 10 1017.4S
30.7N   81.3W                 86                N/A     2/ 5
MAYPORT                    84 87  300/  7/  9 1017.9S
31.4N   80.9W              85 86  280/  8/  8 1016.8R   2/ 3   2/ 4
ST AUGUSTINE               84 84   50/  6/  7 1018.7F

$$
FLZ040-043>046-052-053-057-058-063-144-291600-
INTERIOR CENTRAL FLORIDA

CITY           SKY/WX    TMP DP  RH WIND       PRES   REMARKS
OCALA          MOSUNNY   88  75  66 N6        30.08S HX  97
THE VILLAGES     N/A     90  77  66 MISG      29.97F HX 102
LEESBURG       SUNNY     91  73  55 VRB3      30.07F HX  99
SANFORD        SUNNY     90  74  59 NE7       30.06F HX  99
ORLANDO EXEC   MOSUNNY   90  76  63 CALM      30.07S HX 101
ORLANDO INTL   MOSUNNY   90  74  59 W5        30.06F HX  99
KISSIMMEE      PTSUNNY   89  77  67 CALM      30.07F HX 101
WINTER HAVEN   MOSUNNY   90  73  57 VRB3      30.08F HX  98
LAKELAND       MOSUNNY   88  77  70 CALM      30.08S HX 100
BARTOW         MOSUNNY   88  75  66 NW6       30.07F HX  97
OKEECHOBEE     MOSUNNY   88  75  66 S5        30.08F HX  97

$$
FLZ041-047-054-059-064-141-147-291600-
EAST CENTRAL FLORIDA

CITY           SKY/WX    TMP DP  RH WIND       PRES   REMARKS
ORMOND BEACH   SUNNY     90  73  58 NW6       30.07S HX  98
DAYTONA BEACH  MOSUNNY   91  73  55 N6        30.07S HX  99
NEW SMYRNA BEA MOSUNNY   88  73  62 W8        30.08S HX  96
JFK SPACE CTR  SUNNY     88  74  62 VRB2      30.05S HX  97
TITUSVILLE     MOSUNNY   90  73  58 VRB6      30.07S HX  98
CAPE CANAVERAL SUNNY     91  74  56 NW7       30.05S HX 100
PATRICK AFB    SUNNY     91  75  58 VRB3      30.06S HX 101
MELBOURNE      MOSUNNY   92  73  53 VRB6      30.06S HX 100
VERO BEACH     SUNNY     91  73  55 MISG      30.08R HX  99
FT PIERCE      MOSUNNY   89  74  60 VRB3      30.07S HX  98
STUART         PTSUNNY   91  75  59 W6        30.09R HX 102

STATION/POSITION SKY/WX   TEMP    WIND        PRES    WAVE   SWELL
                          AIR SEA DIR/SP/G            HT/PER HT/PER
                          (F)     (DEG/KT/KT) (MB)    (FT/S) (FT/S)
28.5N   80.2W              83 84  230/  8/ 10 1018.5R
28.9N   78.5W              85 86  270/ 12/ 14 1017.9R
TRIDENT PIER               86 86  190/  5/  7 1018.1R
28.4N   80.5W                 83                N/A     1/ 7
27.5N   80.2W                 83                N/A     1

$$
FLZ050-056-061-142-242-148-248-149-249-151-251-155-255-
160-260-291600-
WEST CENTRAL FLORIDA

CITY           SKY/WX    TMP DP  RH WIND       PRES   REMARKS
CRYSTAL RIVER  FAIR      90  75  62 CALM      30.06F HX 100
INVERNESS      FAIR      88  79  74 NE5       30.07F HX 102
BROOKSVILLE    MOSUNNY   90  76  63 NE5       30.07F HX 101
ZEPHYRHILLS    FAIR      86  71  60 NE6       30.07F THUNDER
CLEARWATER AIR CLOUDY    86  73  66 SW6       30.06S
ST PETE CLEARW CLOUDY    85  74  69 SW10      30.07S
TAMPA INTL     PTSUNNY   86  75  69 S6        30.07S HX  95
TAMPA EXEC     PTSUNNY   84  77  79 CALM      30.07F
PLANT CITY     MOSUNNY   90  79  70 CALM      30.09S HX 105
MACDILL AFB    PTSUNNY   87  77  73 NE6       30.08S HX  98
PETER O KNIGHT MOSUNNY   88  77  70 W7        30.08S HX 100
ST PETERSBURG  MOSUNNY   87  75  67 VRB3      30.06S HX  96
SARASOTA       PTSUNNY   90  75  61 SW5       30.06S HX 100
VENICE         NOT AVBL

STATION/POSITION SKY/WX   TEMP    WIND        PRES    WAVE   SWELL
                          AIR SEA DIR/SP/G            HT/PER HT/PER
                          (F)     (DEG/KT/KT) (MB)    (FT/S) (FT/S)
27.3N   84.2W                 88                N/A     1/ 5
CLEARWATER BEACH           90 89  320/  2/  3 1018.3R
MIDDLE TAMPA BAY                  200/  3/  3 1018.8R
VENICE                     87 89  140/  3/  3 1017.9F

$$
FLZ066-069-070-075>078-162-262-165-265-291600-
SOUTHWEST FLORIDA AND KEYS

CITY           SKY/WX    TMP DP  RH WIND       PRES   REMARKS
PUNTA GORDA    PTSUNNY   88  75  65 S6        30.09S HX  97
FT MYERS       MOSUNNY   88  75  65 E3        30.07S HX  97
SOUTHWEST INTL MOSUNNY   88  74  63 VRB3      30.08R HX  96
NAPLES         MOSUNNY   87  76  69 S6        30.07S HX  97
MARCO ISLAND   SUNNY     86  72  62 S3        30.08S
MARATHON       MOSUNNY   87  79  76 SE6       30.08R HX 101
KEY WEST INTL  SUNNY     88  79  74 SE8       30.08R HX 103

STATION/POSITION SKY/WX   TEMP    WIND        PRES    WAVE   SWELL
                          AIR SEA DIR/SP/G            HT/PER HT/PER
                          (F)     (DEG/KT/KT) (MB)    (FT/S) (FT/S)
NAPLES                        88              1018.3R
26.0N   85.6W              84 86  100/  4/  4 1018.5R   1/ 7   2/ 7
DRY TORTUGAS               85     120/  7/  7 1018.6R
SAND KEY                   84     130/  9/ 11 1018.9R
LONG KEY                   86 87   10/  1/  2 1018.9R

$$
FLZ067-068-071>074-168-172>174-291600-
SOUTHEAST FLORIDA

CITY           SKY/WX    TMP DP  RH WIND       PRES   REMARKS
W PALM BEACH   MOSUNNY   90  74  59 W5        30.08S HX  99
BOCA RATON     LGT RAIN  88  79  74 SE5       30.08R HX 102
FT LAUDER-EXEC SUNNY     87  72  60 CALM      30.07S
FT LAUDERDALE  PTSUNNY   87  77  72 VRB5      30.07S HX  99
POMPANO BEACH  MOSUNNY   89  76  65 E8        30.07S HX 100
PEMBROKE PINES SUNNY     88  72  58 CALM      30.09R
OPA LOCKA      MOSUNNY   87  75  67 CALM      30.08S HX  96
MIAMI          PTSUNNY   87  76  69 VRB5      30.08S HX  97
WEST KENDALL   MOSUNNY   88  75  65 VRB3      30.07F HX  97
HOMESTEAD      MOSUNNY   89  77  68 E3        30.07S HX 101

STATION/POSITION SKY/WX   TEMP    WIND        PRES    WAVE   SWELL
                          AIR SEA DIR/SP/G            HT/PER HT/PER
                          (F)     (DEG/KT/KT) (MB)    (FT/S) (FT/S)
PORT EVERGLADES            88     100/  3/  4 1018.4R
VIRGINIA KEY               85 89  160/  4/  6 1018.9R
LAKE WORTH                        120/  2/  3   N/A
FOWEY ROCKS                85 86  140/  3/  3 1019.2R
SETTLEMENT POINT           85     210/  8/  9 1019.2F

$$





USA.gov is the U.S. government's official web portal to all federal, state and local government web resources and services.